Location: Clayton (historical)
(34.0300°N, 118.0259°W)
Time: 23:10:39
(UTC+00:00)

Meteor 1-31 Rocket - Pass Details

Date: 29 October 2020
Orbit: 521 x 546 km, 97.6° (Epoch: 29 November)

Event Time Altitude Azimuth Distance (km) Brightness Sun altitude
Rises 12:07:28 0° 22° (NNE) 2,717 6.6 -25.8°
Reaches altitude 10° 12:09:44 10° 31° (NNE) 1,818 5.8 -25.3°
Maximum altitude 12:13:21 35° 98° (E) 887 4.4 -24.6°
Drops below altitude 10° 12:16:57 10° 165° (SSE) 1,799 5.6 -23.8°
Sets 12:19:10 0° 174° (S) 2,682 6.4 -23.4°
